Weather History for Chicago Midway, IL

Change the Weather History Date:

Wednesday, May 28, 2014

  Actual Average Record
Temperature  
Mean Temperature 66 °F 65 °F  
Max Temperature 73 °F 74 °F 94 °F (2012)
Min Temperature 58 °F 55 °F 40 °F (1930)
Degree Days  
Heating Degree Days 0 3  
Month to date heating degree days 161 179  
Since 1 July heating degree days 6807 5950  
Cooling Degree Days 1 3  
Month to date cooling degree days 91 51  
Year to date cooling degree days 96 64  
Growing Degree Days 15 (Base 50)    
Moisture  
Dew Point 55 °F    
Average Humidity 73    
Maximum Humidity 100    
Minimum Humidity 40    
Precipitation  
Precipitation 0.68 in 0.15 in 2.20 in (2013)
Month to date precipitation 4.46 3.70  
Year to date precipitation 11.29 14.06  
Sea Level Pressure  
Sea Level Pressure 29.99 in    
Wind  
Wind Speed 9 mph (NNE)    
Max Wind Speed 20 mph    
Max Gust Speed 25 mph    
Visibility 8 miles    
Events Rain , Thunderstorm    
T = Trace of Precipitation, MM = Missing Value Source: NWS Daily Summary

Daily Weather History Graph

Daily Weather History Graph

Search for Another Location

Airport:

Trip Planner

Search our weather history database for the weather conditions in past years. The results will help you decide how hot, cold, wet, or windy it might be!

Date:

Astronomy

May. 28, 2014 Rise Set
Actual Time 5:20 AM CDT 8:16 PM CDT
Civil Twilight 4:47 AM CDT 8:49 PM CDT
Nautical Twilight 4:05 AM CDT 9:31 PM CDT
Astronomical Twilight 3:17 AM CDT 10:20 PM CDT
Moon 5:27 AM CDT (5/28) 8:13 PM CDT (5/28)
Length of Visible Light 16h 01m
Length of Day
14h 55m
Waning Crescent, 0% of the Moon is Illuminated
May 28
Waning Crescent
May 28
New
Jun 5
First Quarter
Jun 12
Full
Jun 19
Last Quarter

Hourly Weather History & Observations

Time (CDT) Temp. Dew Point Humidity Pressure Visibility Wind Dir Wind Speed Gust Speed Precip Events Conditions
12:51 AM 61.0 °F 59.0 °F 93% 29.92 in 6.0 mi North 8.1 mph - 0.00 in Rain Light Rain
1:03 AM 61.0 °F 59.0 °F 93% 29.97 in 4.0 mi WNW 11.5 mph - 0.00 in   Overcast
1:38 AM 62.1 °F 61.0 °F 96% 29.95 in 5.0 mi North 5.8 mph - 0.00 in   Overcast
1:43 AM 63.0 °F 61.0 °F 93% 29.96 in 5.0 mi NNW 6.9 mph - 0.00 in Rain , Thunderstorm Light Thunderstorms and Rain
1:49 AM 62.6 °F 60.8 °F 94% 29.95 in 1.0 mi North 6.9 mph - 0.19 in Rain , Thunderstorm Thunderstorms and Rain
1:51 AM 62.1 °F 61.0 °F 96% 29.93 in 1.0 mi NE 9.2 mph - 0.27 in Rain , Thunderstorm Heavy Thunderstorms and Rain
2:17 AM 63.0 °F 63.0 °F 100% 29.93 in 2.0 mi NE 8.1 mph - 0.34 in Rain , Thunderstorm Thunderstorms and Rain
2:36 AM 64.0 °F 64.0 °F 100% 29.92 in 4.0 mi ENE 6.9 mph - 0.38 in Rain Light Rain
2:51 AM 64.9 °F 64.0 °F 97% 29.90 in 5.0 mi ESE 4.6 mph - 0.40 in Rain Light Rain
3:51 AM 64.0 °F 62.1 °F 93% 29.91 in 4.0 mi SE 5.8 mph - 0.01 in   Mostly Cloudy
4:51 AM 64.0 °F 62.1 °F 93% 29.92 in 6.0 mi ENE 4.6 mph - N/A   Overcast
5:51 AM 62.1 °F 60.1 °F 93% 29.94 in 4.0 mi East 8.1 mph - N/A   Overcast
6:51 AM 61.0 °F 55.0 °F 81% 29.96 in 10.0 mi North 5.8 mph - N/A   Overcast
7:10 AM 60.1 °F 54.0 °F 80% 29.98 in 10.0 mi NNE 6.9 mph - N/A   Overcast
7:51 AM 61.0 °F 53.1 °F 75% 29.98 in 10.0 mi North 6.9 mph - N/A   Mostly Cloudy
8:43 AM 62.6 °F 53.6 °F 72% 30.00 in 10.0 mi NNE 9.2 mph - N/A   Overcast
8:51 AM 62.6 °F 53.6 °F 72% 30.00 in 10.0 mi NNE 5.8 mph - N/A   Overcast
9:27 AM 64.9 °F 54.0 °F 68% 30.00 in 10.0 mi NNE 6.9 mph - N/A   Mostly Cloudy
9:51 AM 66.0 °F 53.1 °F 63% 29.99 in 10.0 mi NE 4.6 mph - N/A   Mostly Cloudy
10:51 AM 66.9 °F 52.0 °F 59% 30.00 in 10.0 mi NE 5.8 mph - N/A   Overcast
11:51 AM 69.1 °F 54.0 °F 58% 30.01 in 10.0 mi NE 9.2 mph - N/A   Overcast
12:51 PM 71.1 °F 53.1 °F 53% 30.00 in 10.0 mi NNE 9.2 mph - N/A   Mostly Cloudy
1:51 PM 71.1 °F 55.0 °F 57% 29.99 in 10.0 mi NE 11.5 mph - N/A   Mostly Cloudy
2:51 PM 73.0 °F 54.0 °F 51% 29.97 in 10.0 mi NNE 13.8 mph - N/A   Mostly Cloudy
3:51 PM 69.1 °F 50.0 °F 51% 29.98 in 10.0 mi NE 15.0 mph - N/A   Mostly Cloudy
4:51 PM 68.0 °F 50.0 °F 52% 30.01 in 10.0 mi NNE 16.1 mph - N/A   Mostly Cloudy
5:45 PM 64.4 °F 55.4 °F 73% 30.03 in 6.0 mi NE 15.0 mph - N/A   Haze
5:51 PM 64.9 °F 55.9 °F 73% 30.02 in 6.0 mi NE 13.8 mph - N/A   Haze
6:51 PM 62.1 °F 52.0 °F 70% 30.03 in 10.0 mi NE 15.0 mph - N/A   Overcast
7:30 PM 61.0 °F 48.9 °F 64% 30.05 in 10.0 mi NE 15.0 mph - N/A   Overcast
7:44 PM 60.1 °F 48.9 °F 67% 30.05 in 10.0 mi NNE 15.0 mph - N/A   Mostly Cloudy
7:51 PM 61.0 °F 48.9 °F 64% 30.05 in 10.0 mi NNE 12.7 mph - N/A   Mostly Cloudy
8:21 PM 60.1 °F 48.0 °F 64% 30.05 in 10.0 mi NNE 12.7 mph 20.7 mph N/A   Mostly Cloudy
8:51 PM 59.0 °F 48.0 °F 67% 30.05 in 10.0 mi NNE 10.4 mph - N/A   Mostly Cloudy
9:09 PM 59.0 °F 48.0 °F 67% 30.06 in 10.0 mi NE 8.1 mph - N/A   Scattered Clouds
9:51 PM 59.0 °F 46.9 °F 64% 30.06 in 10.0 mi NNE 6.9 mph - N/A   Partly Cloudy
10:51 PM 57.9 °F 48.0 °F 70% 30.04 in 10.0 mi NNE 8.1 mph - N/A   Partly Cloudy
11:51 PM 57.9 °F 48.0 °F 70% 30.03 in 10.0 mi NNE 8.1 mph - N/A   Partly Cloudy